Storm Events Database

Event Details

Event Tornado
-- Scale EF2
-- Length 3.61 Miles
-- Width 200 Yards
State TEXAS
County/Area GRAY
WFO AMA
Report Source NWS Storm Survey
NCDC Data Source CSV
Begin Date 2007-03-28 19:23:00.0 CST-6
Begin Location 2SE MC LEAN
Begin Lat/Lon 35.21/-100.58
End Date 2007-03-28 19:38:00.0 CST-6
End Location 3NE MC LEAN
End Lat/Lon 35.26/-100.56
Deaths Direct/Indirect 0/0 (fatality details below, when available...)
Injuries Direct/Indirect 0/0
Property Damage 74.00K
Crop Damage
Episode Narrative Severe thunderstorms during the evening hours produced numerous tornadoes and large hail across the southern...central and eastern Texas panhandle. Heavy rains caused flash flooding in the eastern Texas panhandle during the late night and early morning hours. One man was killed by a tornado in the northeastern Texas panhandle and another person was injured.
Event Narrative Major damage associated with this tornado included a Texas Department of Transportation meteorological tower which was bent at a ninety degree angle to the ground one mile southeast of McLean. Approximately five hundred yards to the north northeast of this tower...a metal veterinary clinic had a Texas Department of Transportation Highway sign impact the building and penetrate the metal siding and also lost part of the tin from the roof. One hundred yards to the north and slightly west of the veterinary clinic was a house that suffered extensive roof damage. A small section of the roof was destroyed...indications throughout the house show that the entire roof structure attempted to be lifted from the walls. The West Texas Mesonet station one mile east of McLean at 1935 CST measured a wind gust of one hundred and ten knots. A large barn was also destroyed along with some tree damage occurred just northeast of McLean during the final stages of the tornado. Minor damage was encountered along County Road Y...where metal roofing was lost from a large metal shed. Metal lawn and porch furniture was mangled and relocated...a large satellite dish suffered minor damage to its mesh lining...and a few large branches were snapped from nearby trees. An empty fertilizer bin disappeared. The tornado dissipated north of County Road Y. No injuries were reported.


     ‚Äč



All events for this episode:

Location County/Zone St. Date Time T.Z. Type Mag Dth Inj PrD CrD
Totals: 1 5 3.820M 0.00K
CLAUDE ARMSTRONG CO. TX 03/28/2007 16:50 CST-6 Hail 1.00 in. 0 0 0.00K 0.00K
CLAUDE ARMSTRONG CO. TX 03/28/2007 16:50 CST-6 Hail 0.88 in. 0 0 0.00K 0.00K
WAYSIDE ARMSTRONG CO. TX 03/28/2007 16:50 CST-6 Hail 2.75 in. 0 0 0.00K 0.00K
CLAUDE ARMSTRONG CO. TX 03/28/2007 16:51 CST-6 Hail 1.00 in. 0 0 0.00K 0.00K
AMARILLO POTTER CO. TX 03/28/2007 17:25 CST-6 Hail 2.75 in. 0 0 11.00K 0.00K
PANTEX CARSON CO. TX 03/28/2007 17:25 CST-6 Hail 2.75 in. 0 0 14.00K 0.00K
PANHANDLE CARSON CO. TX 03/28/2007 17:26 CST-6 Hail 2.75 in. 0 0 0.00K 0.00K
PANTEX CARSON CO. TX 03/28/2007 17:29 CST-6 Hail 1.25 in. 0 0 0.00K 0.00K
AMARILLO POTTER CO. TX 03/28/2007 17:30 CST-6 Thunderstorm Wind 61 kts. EG 0 0 12.00K 0.00K
PERRYTON OCHILTREE CO. TX 03/28/2007 17:30 CST-6 Hail 1.00 in. 0 0 0.00K 0.00K
BOOKER LIPSCOMB CO. TX 03/28/2007 17:35 CST-6 Hail 0.88 in. 0 0 0.00K 0.00K
PANHANDLE CARSON CO. TX 03/28/2007 17:37 CST-6 Hail 2.00 in. 0 0 0.00K 0.00K
CLARENDON DONLEY CO. TX 03/28/2007 17:40 CST-6 Tornado EF0 0 0 0.00K 0.00K
DARROUZETT LIPSCOMB CO. TX 03/28/2007 17:40 CST-6 Hail 0.75 in. 0 0 0.00K 0.00K
PANTEX CARSON CO. TX 03/28/2007 17:40 CST-6 Hail 4.50 in. 0 0 0.00K 0.00K
BORGER HUTCHINSON CO. TX 03/28/2007 17:45 CST-6 Hail 1.00 in. 0 0 0.00K 0.00K
SANFORD HUTCHINSON CO. TX 03/28/2007 17:47 CST-6 Hail 1.75 in. 0 0 0.00K 0.00K
BORGER HUTCHINSON CO. TX 03/28/2007 17:50 CST-6 Hail 2.00 in. 0 0 0.00K 0.00K
CLARENDON DONLEY CO. TX 03/28/2007 17:55 CST-6 Tornado EF1 0 0 5.00K 0.00K
STINNETT HUTCHINSON CO. TX 03/28/2007 17:59 CST-6 Hail 1.75 in. 0 0 0.00K 0.00K
CLAUDE ARMSTRONG CO. TX 03/28/2007 18:00 CST-6 Hail 1.00 in. 0 0 0.00K 0.00K
CLAUDE ARMSTRONG CO. TX 03/28/2007 18:00 CST-6 Hail 1.75 in. 0 0 0.00K 0.00K
FRITCH HUTCHINSON CO. TX 03/28/2007 18:00 CST-6 Hail 1.75 in. 0 0 0.00K 0.00K
CLARENDON DONLEY CO. TX 03/28/2007 18:05 CST-6 Tornado EF0 0 0 0.00K 0.00K
BOOKER LIPSCOMB CO. TX 03/28/2007 18:08 CST-6 Hail 2.75 in. 0 0 0.00K 0.00K
STINNETT HUTCHINSON CO. TX 03/28/2007 18:10 CST-6 Hail 1.75 in. 0 0 0.00K 0.00K
MORSE HANSFORD CO. TX 03/28/2007 18:12 CST-6 Hail 1.50 in. 0 0 0.00K 0.00K
CLARENDON DONLEY CO. TX 03/28/2007 18:15 CST-6 Hail 1.00 in. 0 0 0.00K 0.00K
STINNETT HUTCHINSON CO. TX 03/28/2007 18:15 CST-6 Hail 1.00 in. 0 0 0.00K 0.00K
BOOKER LIPSCOMB CO. TX 03/28/2007 18:16 CST-6 Tornado EF0 0 0 0.00K 0.00K
GRUVER HANSFORD CO. TX 03/28/2007 18:20 CST-6 Hail 0.88 in. 0 0 0.00K 0.00K
CLARENDON DONLEY CO. TX 03/28/2007 18:22 CST-6 Thunderstorm Wind 52 kts. EG 0 0 34.00K 0.00K
JERICHO DONLEY CO. TX 03/28/2007 18:39 CST-6 Tornado EF3 0 2 180.00K 0.00K
CLAUDE ARMSTRONG CO. TX 03/28/2007 18:45 CST-6 Hail 1.00 in. 0 0 0.00K 0.00K
HEDLEY DONLEY CO. TX 03/28/2007 18:46 CST-6 Tornado EF2 0 0 63.00K 0.00K
LEFORS GRAY CO. TX 03/28/2007 18:48 CST-6 Tornado EF3 0 2 100.00K 0.00K
HEDLEY DONLEY CO. TX 03/28/2007 19:02 CST-6 Tornado EF0 0 0 0.00K 0.00K
MIAMI ROBERTS CO. TX 03/28/2007 19:05 CST-6 Hail 0.75 in. 0 0 0.00K 0.00K
PAMPA GRAY CO. TX 03/28/2007 19:05 CST-6 Hail 0.88 in. 0 0 0.00K 0.00K
HOWARDWICK DONLEY CO. TX 03/28/2007 19:07 CST-6 Hail 2.75 in. 0 0 0.00K 0.00K
MC LEAN GRAY CO. TX 03/28/2007 19:10 CST-6 Hail 2.75 in. 0 0 0.00K 0.00K
JERICHO DONLEY CO. TX 03/28/2007 19:13 CST-6 Tornado EF2 0 0 170.00K 0.00K
JERICHO DONLEY CO. TX 03/28/2007 19:15 CST-6 Tornado EF0 0 0 0.00K 0.00K
CANYON RANDALL CO. TX 03/28/2007 19:23 CST-6 Hail 1.25 in. 0 0 0.00K 0.00K
MC LEAN GRAY CO. TX 03/28/2007 19:23 CST-6 Tornado EF2 0 0 74.00K 0.00K
CANYON RANDALL CO. TX 03/28/2007 19:26 CST-6 Hail 1.00 in. 0 0 0.00K 0.00K
LEFORS GRAY CO. TX 03/28/2007 19:30 CST-6 Tornado EF0 0 0 3.00K 0.00K
MC LEAN GRAY CO. TX 03/28/2007 19:30 CST-6 Hail 2.75 in. 0 0 0.00K 0.00K
MC LEAN GRAY CO. TX 03/28/2007 19:34 CST-6 Hail 2.75 in. 0 0 0.00K 0.00K
ALANREED GRAY CO. TX 03/28/2007 19:35 CST-6 Hail 1.00 in. 0 0 0.00K 0.00K
AMARILLO RANDALL CO. TX 03/28/2007 19:35 CST-6 Hail 0.88 in. 0 0 0.00K 0.00K
AMARILLO POTTER CO. TX 03/28/2007 19:36 CST-6 Hail 0.75 in. 0 0 0.00K 0.00K
LEFORS GRAY CO. TX 03/28/2007 19:36 CST-6 Tornado EF1 0 0 39.00K 0.00K
PANHANDLE CARSON CO. TX 03/28/2007 19:37 CST-6 Thunderstorm Wind 76 kts. EG 0 0 0.00K 0.00K
FRITCH HUTCHINSON CO. TX 03/28/2007 19:40 CST-6 Hail 0.88 in. 0 0 0.00K 0.00K
AMARILLO POTTER CO. TX 03/28/2007 19:45 CST-6 Hail 1.00 in. 0 0 0.00K 0.00K
KINGS MILL GRAY CO. TX 03/28/2007 19:45 CST-6 Hail 0.75 in. 0 0 0.00K 0.00K
MC LEAN GRAY CO. TX 03/28/2007 19:45 CST-6 Tornado EF3 0 0 27.00K 0.00K
CANYON RANDALL CO. TX 03/28/2007 19:52 CST-6 Hail 0.88 in. 0 0 0.00K 0.00K
AMARILLO POTTER CO. TX 03/28/2007 20:20 CST-6 Hail 1.75 in. 0 0 0.00K 0.00K
HEREFORD DEAF SMITH CO. TX 03/28/2007 20:25 CST-6 Hail 0.88 in. 0 0 0.00K 0.00K
AMARILLO POTTER CO. TX 03/28/2007 20:26 CST-6 Hail 0.88 in. 0 0 0.00K 0.00K
CANADIAN HEMPHILL CO. TX 03/28/2007 20:30 CST-6 Hail 1.75 in. 0 0 0.00K 0.00K
CANADIAN HEMPHILL CO. TX 03/28/2007 20:30 CST-6 Tornado EF3 1 1 3.000M 0.00K
GRUVER HANSFORD CO. TX 03/28/2007 20:30 CST-6 Hail 1.00 in. 0 0 0.00K 0.00K
LEFORS GRAY CO. TX 03/28/2007 20:30 CST-6 Hail 2.75 in. 0 0 0.00K 0.00K
CANYON RANDALL CO. TX 03/28/2007 20:40 CST-6 Hail 0.88 in. 0 0 0.00K 0.00K
AMARILLO POTTER CO. TX 03/28/2007 20:45 CST-6 Hail 1.00 in. 0 0 0.00K 0.00K
MIAMI ROBERTS CO. TX 03/28/2007 20:45 CST-6 Thunderstorm Wind 61 kts. EG 0 0 43.00K 0.00K
CANADIAN HEMPHILL CO. TX 03/28/2007 20:58 CST-6 Hail 0.88 in. 0 0 0.00K 0.00K
CANADIAN HEMPHILL CO. TX 03/28/2007 21:00 CST-6 Hail 1.25 in. 0 0 0.00K 0.00K
CANADIAN HEMPHILL CO. TX 03/28/2007 21:00 CST-6 Thunderstorm Wind 52 kts. EG 0 0 0.00K 0.00K
CANADIAN HEMPHILL CO. TX 03/28/2007 21:00 CST-6 Hail 1.75 in. 0 0 0.00K 0.00K
PAMPA GRAY CO. TX 03/28/2007 21:00 CST-6 Hail 1.00 in. 0 0 0.00K 0.00K
BOOKER LIPSCOMB CO. TX 03/28/2007 21:04 CST-6 Hail 0.75 in. 0 0 0.00K 0.00K
GLAZIER HEMPHILL CO. TX 03/28/2007 21:18 CST-6 Hail 0.75 in. 0 0 0.00K 0.00K
STINNETT HUTCHINSON CO. TX 03/28/2007 21:20 CST-6 Hail 1.75 in. 0 0 0.00K 0.00K
FRITCH HUTCHINSON CO. TX 03/28/2007 21:25 CST-6 Hail 1.00 in. 0 0 0.00K 0.00K
CLAUDE ARMSTRONG CO. TX 03/28/2007 22:12 CST-6 Thunderstorm Wind 57 kts. EG 0 0 0.00K 0.00K
CLAUDE ARMSTRONG CO. TX 03/28/2007 22:18 CST-6 Hail 1.00 in. 0 0 0.00K 0.00K
CLAUDE ARMSTRONG CO. TX 03/28/2007 22:18 CST-6 Hail 0.75 in. 0 0 0.00K 0.00K
CLAUDE ARMSTRONG CO. TX 03/28/2007 22:20 CST-6 Hail 0.75 in. 0 0 0.00K 0.00K
DARROUZETT LIPSCOMB CO. TX 03/28/2007 22:24 CST-6 Thunderstorm Wind 80 kts. EG 0 0 9.00K 0.00K
CLAUDE ARMSTRONG CO. TX 03/28/2007 22:26 CST-6 Thunderstorm Wind 56 kts. EG 0 0 28.00K 0.00K
MIAMI ROBERTS CO. TX 03/28/2007 22:41 CST-6 Hail 1.00 in. 0 0 0.00K 0.00K
LEFORS GRAY CO. TX 03/28/2007 23:20 CST-6 Flash Flood 0 0 8.00K 0.00K
CLARENDON DONLEY CO. TX 03/28/2007 23:30 CST-6 Hail 0.75 in. 0 0 0.00K 0.00K
Totals: 1 5 3.820M 0.00K